STARLINK-33774 (63721 NORAD) Tracking and Keplerian Element Data

This shows tracking and keplerian element data for the satellite.

Feedback or suggestion? Click here.




ElementValue
Catalog63721
NameSTARLINK-33774
Epoch Orbit3700
Epoch Day354.04827597
Epoch Year2025
RAAN229.6645
Inclination53.1588
Eccentricity0.0001662
Argument of Perigee87.692
Mean Anonmoly272.4272
Mean Motion15.30207838
Decay Rate0.0001255
L11 63721U 25087AA 25354.04827597 .00012550 00000+0 43502-3 0 9991
L22 63721 53.1588 229.6645 0001662 87.6920 272.4272 15.30207838 37005



Live tracking and technical data element details for STARLINK-33774 (NORAD 63721). STARLINK-33774 can be tracked NOW for your location showing map with azimuth and elevation plus other details from your city location.







IsCatalogInMostPopularTable: catalog: 63721, numindb: 6
Update: records affected: 1



GetName: 63721 STARLINK-33774

Hit Count: updated at: Thu, 21 May 2026 11:49:10 GMT